Torna al catalogo

METEOR 2-17 DEB

AttivoPO
NORAD 28990·DEBRIS·🇷🇺 Russia

Lanciato Jan 30, 1988 da Plesetsk Cosmodrome

Loading…

Prossimi Passaggi (prossime 24 ore)

TLE

In scadenzaSource: Space-Track

Epoca: Sep 9, 2026, 02:10 UTC

1 28990U 88005E   26252.09033621  .00001538  00000-0  94948-3 0  9994
2 28990  82.5144 164.6672 0014574 287.7650  72.1931 14.04802491617529

Traccia METEOR 2-17 DEB in tempo reale con AllMySat

Download on the App Store